COSMOS 1806

导读 | 星芒AI

COSMOS 1806 是苏联于1987年发射的一颗军用通信卫星,用于支持军事指挥与控制系统的通信需求。该卫星属于“COSMOS”系列,这一系列涵盖多种用途的卫星,包括通信、侦察和导航等。COSMOS 1806 的具体任务细节未公开,但其发射体现了冷战时期苏联在空间通信能力上的发展。该卫星最终在轨道上运行多年后失效,成为太空垃圾的一部分。

基本信息
目录编号:
17213
目录名称:
COSMOS 1806
国际标识:
1986-098A
轨道中心:
EARTH
卫星名称:
COSMOS 1806
卫星全名:
--
卫星状态:
在轨 (已飞行14248 天)
发射日期:
1986-12-12 UTC
国别 :
俄罗斯(独联体) (CIS)
星等 :
--
轨道信息
数据来源 国际轨道数据
星历时间: 2025-12-12T22:09:48+0800
3天前
查看轨道信息
半长轴: 26569.605km
偏心率: 0.4668684
轨道倾角: 68.567°
近地点辐角 83.626°
升交点赤经 152.917°
平近点角 332.027°
近地点: 7786.961km
远地点: 32595.979km
周期: 718.352分钟
每日圈数: 2.004588
详细信息
使用方式:
暂无
2D轨道图
3D轨道图
轨道高度分析图
轨道倾角分析图
轨道综合分析图
查看轨道综合分析图